Regional Weather Roundup
Issued by NWS

Home | Current Version | Previous Version | Text Only | Print | Product List | Glossary On
Versions: 1 2 3 4 5 6 7 8 9 10 11 12 13 14 15 16 17 18 19 20 21 22 23 24 25 26 27 28 29 30 31 32 33 34 35 36 37 38 39 40 41 42 43 44 45 46 47 48 49 50
000
ASUS43 KLSX 280410
RWRMO

WEATHER SUMMARY FOR MISSOURI
NATIONAL WEATHER SERVICE SPRINGFIELD MO
1100 PM CDT TUE JUN 27 2017

NOTE: "FAIR" INDICATES FEW OR NO CLOUDS BELOW 12,000 FEET WITH NO
       SIGNIFICANT WEATHER AND/OR OBSTRUCTIONS TO VISIBILITY.
       CURRENT SKY AND/OR WEATHER CONDITIONS ARE NOT AVAILABLE FOR
       CHILLICOTHE AND FARMINGTON.

MOZ001>031-035>038-043-044-053-054-280500-
...NORTHERN AND WESTERN MISSOURI...

CITY           SKY/WX    TMP DP  RH WIND       PRES   REMARKS
KANSAS CTY INT MOCLDY    75  67  76 S12       29.90R
KANSAS C DTWN  CLEAR     77  67  71 S12G20    29.90R
LEE`S SUMMIT   CLEAR     75  65  70 S10       29.93R
ST JOSEPH      CLEAR     75  67  76 SE14      29.86F
CHILLICOTHE      N/A     74  64  71 SE6       29.94R
KIRKSVILLE     MOCLDY    69  57  65 S9        29.96S

$$
MOZ066>068-077>081-088>096-101>105-280500-
...SOUTHWEST MISSOURI...

CITY           SKY/WX    TMP DP  RH WIND       PRES   REMARKS
SPRINGFIELD    CLEAR     73  64  73 S13       30.00R
JOPLIN         CLEAR     75  65  70 S12       29.96R
BRANSON        CLEAR     68  64  88 CALM      30.05R

$$
MOZ032>034-039>042-045>050-055>058-069>072-280500-
...CENTRAL MISSOURI...

CITY           SKY/WX    TMP DP  RH WIND       PRES   REMARKS
COLUMBIA       PTCLDY    69  63  81 S7        29.99S
JEFFERSON CITY PTCLDY    73  62  68 SE8       29.98S
ROLLA          CLEAR     68  62  81 SE8       30.02R
SEDALIA        MOCLDY    73  67  81 S10       29.97R
WHITEMAN AFB   PTCLDY    73  73  97 S13       29.93S
WARRENSBURG    MOCLDY    72  64  78 SE8       29.93S
OSAGE BEACH    CLEAR     70  64  81 SE6       30.01R

$$
MOZ051-052-059>065-280500-
...EAST CENTRAL MISSOURI...

CITY           SKY/WX    TMP DP  RH WIND       PRES   REMARKS
ST LOUIS INTL  CLEAR     75  52  44 SE13      30.03R
SPIRIT OF STL  CLEAR     71  55  56 VRB3      30.02R
ST CHARLES     CLEAR     65  54  67 CALM      30.02R

$$
MOZ072>076-082>087-097>100-106>115-280500-
...SOUTH CENTRAL AND SOUTHEAST MISSOURI...

CITY           SKY/WX    TMP DP  RH WIND       PRES   REMARKS
CAPE GIRARDEAU CLEAR     65  59  81 SE5       30.06R
FARMINGTON     CLEAR     64  58  80 CALM      30.08R
POPLAR BLUFF   CLEAR     68  66  93 CALM      30.05S
WEST PLAINS    CLEAR     68  63  84 SE3       30.07R

$$




USA.gov is the U.S. government's official web portal to all federal, state and local government web resources and services.